Probability
0 0 0 0 0 0 0 0 0 0 0 0 0 0 0 0 0 0 0 0 0 0 0 0 0 0 0 0 0 0 0 0 0 0 0 0 0 0 0 0 0 0 0 0
0 0 0 0 0 0 0 0 0 0 0 0 0 0 0 0 0 0 0 0 0 0 0 0 0 0 0 0 0 0 0 0 0 0 0 0 0 0 0 0 0 0 0 0
0 0 0 0 0 0 0 0 0 0 0 0 0 0 0 0 0 0 0 0 0 0 0 0 0 0 0 0 0 0 0 0 0 0 0 0 0 0 0 0 0 0 0 0
0 0 0 0 0 0 0 0 0 0 0 0 0 0 0 0 0 0 0 0 0 0 0 0 0 0 0 0 0 0 0 0 0 0 0 0 0 0 0 0 0 0 0 0
0 0 0 0 0 0 0 0 0 0 0 0 0 0 0 0 0 0 0 0 0 0 0 0 0 0 0 0 0 0 0 0 0 0 0 0 0 0 0 0 0 0 0 0
0 0 0 0 0 0 0 0 0 0 0 0 0 0 0 0 0 0 0 0 0 0 0 0 0 0 0 0 0 0 0 0 0 0 0 0 0 0 0 0 0 0 0 0
0 0 0 0 0 0 0 0 0 0 0 0 0 0 0 0 0 0 0 0 0 0 0 0 0 0 0 0 0 0 0 0 0 0 0 0 0 0 0 0 0 0 0 0
0 0 0 0 0 0 0 0 0 0 0 0 0 0 0 0 0 0 0 0 0 0 0 0 0 0 0 0 0 0 0 0 0 0 0 0 0 0 0 0 0 0 0 0
0 0 0 0 0 0 0 0 0 0 0 0 0 0 0 0 0 0 0 0 0 0 0 0 0 0 0 0 0 0 0 0 0 0 0 0 0 0 0 0 0 0 0 0
0 0 0 0 0 0 0 0 0 0 0 0 0 0 0 0 0 0 0 0 0 0 0 0 0 0 0 0 0 0 0 0 0 0 0 0 0 0 0 0 0 0 0 0
0 0 0 0 0 0 0 0 0 0 0 0 0 0 0 0 0 0 0 0 0 0 0 0 0 0 0 0 0 0 0 0 0 0 0 0 0 0 0 0 0 0 0 0
0 0 0 0 0 0 0 0 0 0 0 0 0 0 0 0 0 0 0 0 0 0 0 0 0 0 0 0 0 0 0 0 0 0 0 0 0 0 0 0 0 0 0 0
0 0 0 0 0 0 0 0 0 0 0 0 0 0 0 0 0 0 0 0 0 0 0 0 0 0 0 0 0 0 0 0 0 0 0 0 0 0 0 0 0 0 0 0
0 0 0 0 0 0 0 0 0 0 0 0 0 0 0 0 0 0 0 0 0 0 0 0 0 0 0 0 0 0 0 0 0 0 0 0 0 0 0 0 0 0 0 0
0 0 0 0 0 0 0 0 0 0 0 0 0 0 0 0 0 0 0 0 0 0 0 0 0 0 0 0 0 0 0 0 0 0 0 0 0 0 0 0 0 0 0 0
0 0 0 0 0 0 0 0 0 0 0 0 0 0 0 0 0 0 0 0 0 0 0 0 0 0 0 0 0 0 0 0 0 0 0 0 0 0 0 0 0 0 0 0
0 0 0 0 0 0 0 0 0 0 0 0 0 0 0 0 0 0 0 0 0 0 0 0 0 0 0 0 0 0 0 0 0 0 0 0 0 0 0 0 0 0 0 0
0 0 0 0 0 0 0 0 0 0 0 0 0 0 0 0 0 0 0 0 0 0 0 0 0 0 0 0 0 0 0 0 0 0 0 0 0 0 0 0 0 0 0 0
0 0 0 0 0 0 0 0 0 0 0 0 0 0 0 0 0 0 0 0 0 0 0 0 0 0 0 0 0 0 0 0 0 0 0 0 0 0 0 0 0 0 0 0
0 0 0 0 0 0 0 0 0 0 0 0 0 0 0 0 0 0 0 0 0 0 0 0 0 0 0 0 0 0 0 0 0 0 0 0 0 0 0 0 0 0 0 0
0 0 0 0 0 0 0 0 0 0 0 0 0 0 0 0 0 0 0 0 0 0 0 0 0 0 0 0 0 0 0 0 0 0 0 0 0 0 0 0 0 0 0 0
0 0 0 0 0 0 0 0 0 0 0 0 0 0 0 0 0 0 0 0 0 0 0 0 0 0 0 0 0 0 0 0 0 0 0 0 0 0 0 0 0 0 0 0
0 0 0 0 0 0 0 0 0 0 0 0 0 0 0 0 0 0 0 0 0 0 0 0 0 0 0 0 0 0 0 0 0 0 0 0 0 0 0 0 0 0 0 0
0 0 0 0 0 0 0 0 0 0 0 0 0 0 0 0 0 0 0 0 0 0 0 0 0 0 0 0 0 0 0 0 0 0 0 0 0 0 0 0 0 0 0 0
0 0 0 0 0 0 0 0 0 0 0 0 0 0 0 0 0 0 0 0 0 0 0 0 0 0 0 0 0 0 0 0 0 0 0 0 0 0 0 0 0 0 0 0
0 0 0 0 0 0 0 0 0 0 0 0 0 0 0 0 0 0 0 0 0 0 0 0 0 0 0 0 0 0 0 0 0 0 0 0 0 0 0 0 0 0 0 0
0 0 0 0 0 0 0 0 0 0 0 0 0 0 0 0 0 0 0 0 0 0 0 0 0 0 0 0 0 0 0 0 0 0 0 0 0 0 0 0 0 0 0 0
Wind_Speed
5 4 3 4 5 6 7 8 9 9 9 11 9 8 7 6 5 5 5 6 7 7 6 5 4 4 4 4 3 2 2 2 3 3 2 2 3 3 3 3 3 3 3 4
2 2 2 4 6 6 7 5 7 5 9 11 6 3 4 6 7 7 8 8 8 7 6 6 6 5 4 4 3 2 2 3 2 2 2 2 3 3 3 3 3 3 4 4
3 4 2 6 8 7 6 7 9 10 12 5 4 7 8 8 8 9 9 8 8 8 8 8 7 6 6 5 3 3 3 3 2 2 2 2 2 2 3 3 3 3 3 3
1 2 4 10 4 5 6 7 8 8 7 6 8 6 5 6 9 9 8 8 7 7 7 6 5 5 4 3 4 3 3 3 2 2 2 2 2 2 3 2 2 2 3 3
3 2 7 10 5 5 5 7 7 8 7 3 2 2 3 5 8 9 9 8 7 7 6 5 6 6 5 4 4 3 3 4 3 3 3 2 2 3 2 2 3 2 2 3
4 3 6 10 4 2 3 6 5 6 6 4 6 2 7 5 6 6 5 5 5 5 5 5 5 6 6 5 4 4 5 5 3 3 3 3 4 3 2 2 3 3 3 3
5 4 9 10 4 3 3 8 4 5 6 9 9 8 5 3 5 5 5 5 6 6 5 5 5 7 6 5 5 6 4 3 2 3 3 4 3 2 2 2 2 3 3 3
5 4 10 4 4 6 8 4 3 4 6 8 7 3 2 4 5 6 6 6 6 6 4 3 5 7 6 5 5 3 2 2 2 2 2 2 2 2 2 2 2 3 3 4
9 9 6 3 6 5 3 4 4 4 5 6 5 5 4 4 5 5 6 6 6 6 5 3 4 5 6 4 3 3 2 2 2 1 1 1 1 2 2 1 1 2 2 3
5 9 7 7 6 5 5 6 5 5 4 6 6 6 6 5 5 5 5 6 6 7 6 4 4 4 4 3 3 4 3 2 1 1 1 1 1 1 1 1 2 2 2 3
6 8 8 7 5 4 3 4 4 4 5 6 7 6 6 6 6 6 6 5 6 7 7 5 4 3 2 3 4 4 3 1 1 1 1 1 1 1 1 1 1 2 2 2
8 7 5 9 7 4 5 6 6 4 4 4 7 7 6 6 6 6 7 6 6 6 6 5 5 3 2 3 4 5 3 1 1 1 0 0 1 2 1 1 3 3 3 2
8 6 6 9 8 6 6 8 6 6 6 5 5 6 7 5 5 6 6 7 8 7 6 6 5 4 2 3 4 4 3 2 1 1 0 0 0 0 2 3 4 5 7 7
6 4 7 7 8 8 7 6 5 4 4 4 5 5 6 5 5 7 7 7 7 7 7 6 5 4 2 3 4 4 3 3 2 1 1 1 0 0 0 1 2 3 5 8
7 6 9 9 8 7 5 3 3 4 3 3 4 6 7 8 8 7 6 7 7 7 6 6 6 3 2 4 5 4 3 2 2 1 1 1 1 2 2 2 2 2 3 5
9 7 6 7 7 7 4 4 5 6 5 4 5 6 6 7 6 6 6 8 9 8 7 7 5 4 4 5 5 4 3 6 5 3 2 2 2 3 3 3 3 3 4 4
5 6 6 7 8 7 7 7 7 6 5 6 6 6 7 8 7 6 6 5 6 6 6 6 5 4 4 5 5 4 3 4 7 4 3 3 3 3 3 3 3 3 3 4
5 7 7 7 8 8 8 6 5 5 5 5 7 8 9 10 10 9 7 7 7 6 4 4 5 5 5 5 5 4 4 4 3 4 3 3 3 3 3 3 3 3 2 4
6 6 6 6 6 5 5 5 4 4 4 6 8 9 8 8 9 9 9 9 9 7 4 4 9 7 5 6 7 4 5 5 4 3 3 5 4 3 3 3 2 2 2 2
7 7 7 7 5 4 3 3 2 3 4 6 7 7 7 7 9 9 8 6 5 5 6 7 7 5 5 6 8 4 5 5 5 4 3 3 3 2 2 2 2 2 2 2
9 8 8 7 6 5 3 2 2 3 4 6 8 9 9 8 8 8 8 5 3 5 7 10 6 4 4 6 8 5 5 5 4 4 3 3 3 2 2 2 1 1 1 1
7 7 7 7 6 6 5 2 1 3 4 5 6 8 9 9 7 6 4 4 6 8 6 4 4 7 8 8 4 5 5 4 4 3 3 3 3 2 2 2 1 1 1 0
6 5 6 5 5 4 4 3 1 2 4 5 7 8 9 8 7 7 5 3 5 10 6 4 8 12 12 6 4 5 5 5 4 3 3 3 3 3 2 2 1 1 1 1
6 6 5 4 3 3 3 3 2 1 2 3 4 6 8 6 3 2 3 10 11 10 5 7 12 12 10 4 4 4 4 4 4 3 3 3 2 2 2 2 2 1 1 1
6 5 5 4 3 2 2 1 1 1 2 2 3 4 4 4 5 5 5 6 11 10 5 9 13 11 6 4 4 4 4 4 4 4 3 3 3 2 2 2 2 2 2 2
5 5 4 4 3 2 2 1 1 1 2 2 2 2 3 3 5 5 5 5 8 9 5 4 5 6 4 4 4 4 4 3 3 3 3 3 3 3 2 2 3 2 2 2
5 4 3 3 3 2 2 2 2 3 3 4 3 3 3 4 5 5 6 5 5 5 4 4 4 4 4 4 4 4 3 3 3 3 3 3 3 3 3 3 2 2 2 2
Wind_Direction
236 240 214 226 215 183 188 190 192 227 229 249 242 230 228 218 206 197 203 203 203 206 210 212 218 223 222 229 229 209 204 237 263 285 305 314 322 326 333 339 339 335 342 344
300 295 232 253 249 213 215 207 217 237 255 249 242 214 221 213 198 204 211 211 208 208 205 207 209 212 211 218 216 186 201 238 265 293 309 311 312 319 331 333 335 344 346 342
273 309 8 278 244 209 213 208 189 213 239 239 208 213 215 209 202 209 211 208 203 203 203 205 203 199 202 208 191 182 209 238 256 270 287 296 310 326 322 317 327 333 332 339
207 23 251 247 251 205 216 239 214 226 242 218 216 223 225 202 198 209 208 203 201 198 200 202 194 189 189 174 174 190 215 239 250 253 270 291 309 308 303 303 307 307 315 323
134 215 277 294 278 188 196 265 222 217 240 228 166 68 295 219 198 205 202 196 195 190 188 182 181 176 161 166 175 192 221 237 240 233 249 270 281 284 283 295 299 296 297 311
136 179 245 255 262 193 143 282 254 197 208 170 129 150 255 222 190 196 189 181 175 165 157 166 176 157 156 172 180 210 226 234 235 226 232 248 259 266 269 272 284 298 304 299
167 212 259 256 264 131 156 247 257 196 191 170 183 203 224 176 173 173 168 165 154 149 156 173 160 151 162 174 205 222 223 226 230 229 233 242 258 261 269 284 304 310 307 304
153 190 254 259 150 181 220 250 237 206 192 190 211 221 186 175 170 160 153 149 148 147 153 150 150 155 166 197 221 210 194 209 235 245 250 248 248 271 276 284 304 309 314 315
187 213 237 242 221 245 246 252 244 217 211 189 196 205 188 181 173 166 160 154 149 146 141 138 152 158 172 210 199 169 166 202 240 263 266 264 248 267 283 278 281 295 302 303
247 267 262 259 254 258 237 241 255 236 212 184 196 198 187 178 175 169 163 158 150 143 145 155 165 169 188 188 155 148 161 198 230 260 289 295 271 253 254 268 270 283 289 291
259 278 302 295 259 258 265 258 255 244 217 202 190 194 189 183 182 176 166 157 154 156 159 167 163 170 179 157 146 148 160 180 207 238 270 292 292 247 233 249 215 240 265 265
236 242 237 272 283 279 271 265 248 230 232 218 194 194 186 185 181 171 166 157 155 160 160 161 156 161 164 158 153 152 156 178 190 201 245 282 315 337 333 293 11 15 351 315
243 265 246 262 280 268 257 259 250 226 213 214 206 187 177 177 173 163 162 162 166 167 162 154 147 147 152 154 152 154 161 169 163 159 157 161 67 11 340 359 23 26 21 20
261 281 278 272 272 276 266 264 254 243 228 202 187 171 163 160 159 165 173 174 161 151 149 147 142 147 153 144 141 147 152 145 141 151 152 142 133 112 84 34 11 2 10 21
276 256 253 271 282 282 275 258 242 241 223 200 175 168 166 166 170 173 165 150 141 141 145 145 143 151 145 138 135 138 138 137 128 118 108 100 89 84 78 70 54 18 8 11
294 290 274 275 276 277 269 240 229 233 215 197 184 179 172 161 152 145 146 148 148 155 157 151 152 159 143 135 128 122 123 123 117 108 92 85 82 83 78 72 63 48 32 11
302 303 297 294 284 272 254 240 232 225 209 195 185 162 144 136 134 139 144 145 143 145 149 150 153 144 135 133 130 126 115 113 110 99 94 93 90 88 86 83 76 62 41 34
258 264 265 268 272 272 267 257 238 218 201 189 158 150 153 156 159 157 148 133 122 117 129 144 143 132 128 129 127 125 120 114 111 109 103 95 92 89 89 86 80 70 40 35
311 305 300 294 287 274 263 256 238 213 182 160 160 165 166 160 153 149 146 143 144 149 167 162 146 132 130 139 132 122 121 116 108 103 103 104 95 88 90 90 83 71 58 46
335 334 330 325 327 321 297 279 232 182 167 159 153 148 146 148 147 147 148 151 164 163 158 150 138 134 137 144 135 124 125 125 123 118 113 111 111 105 98 97 94 83 66 56
340 341 341 339 336 336 325 294 181 167 160 156 156 157 153 148 147 147 146 148 170 150 151 150 143 144 144 146 138 129 130 131 132 133 131 129 125 119 115 111 104 97 85 66
335 336 338 341 345 344 341 343 137 147 144 144 143 140 140 143 146 142 148 156 162 159 147 143 145 157 157 146 135 135 135 136 137 139 141 144 145 146 149 149 147 148 145 147
325 324 329 335 337 335 346 0 68 142 151 154 155 155 155 155 157 153 158 165 158 161 150 157 166 163 156 143 140 141 141 143 148 154 158 161 163 165 169 174 180 184 193 225
321 322 324 326 334 349 348 343 1 100 136 145 154 154 149 143 144 154 145 161 165 160 159 170 169 165 155 142 144 146 150 154 158 162 163 163 165 171 177 183 192 203 214 235
309 310 316 321 319 307 295 319 40 79 106 117 136 147 151 154 157 160 152 159 167 161 160 176 174 166 153 147 152 156 162 170 170 165 167 168 173 180 188 194 200 208 219 238
297 296 293 284 272 267 260 214 178 173 148 141 143 151 145 139 139 142 148 157 164 164 161 161 160 156 153 158 162 166 170 174 172 168 170 173 181 187 196 204 213 215 228 246
290 286 286 293 288 264 235 208 189 191 179 167 166 169 161 156 154 155 155 156 160 160 160 158 156 158 161 164 167 170 170 170 172 173 177 181 186 194 204 210 212 219 232 248